This is the latest recevied weather packets stored in our database for station/object G4MDP-13. If no packets are shown the sender has not sent any weather packets the latest 10 day(s).
| Time | Temp. | Humidity | Pressure | Rain* | Wind** | Luminosity | Snow |
|---|---|---|---|---|---|---|---|
| 1777997957 | 16.67° C | 54% | 1004.8 hPa | 0 mm | - | - | - |
| 1777997117 | 16.67° C | 56% | 1004.9 hPa | 0 mm | - | - | - |
| 1777997060 | 16.67° C | 55% | 1004.9 hPa | 0 mm | - | - | - |
| 1777997058 | 16.67° C | 55% | 1004.9 hPa | 0 mm | - | - | - |
| 1777996158 | 16.11° C | 57% | 1004.9 hPa | 0 mm | - | - | - |
| 1777996157 | 16.11° C | 57% | 1004.9 hPa | 0 mm | - | - | - |
| 1777995317 | 16.11° C | 58% | 1004.8 hPa | 0 mm | - | - | - |
| 1777995260 | 16.11° C | 57% | 1004.9 hPa | 0 mm | - | - | - |
| 1777995258 | 16.11° C | 57% | 1004.9 hPa | 0 mm | - | - | - |
| 1777994358 | 17.22° C | 55% | 1004.8 hPa | 0 mm | - | - | - |
| 1777994357 | 17.22° C | 55% | 1004.8 hPa | 0 mm | - | - | - |
| 1777993517 | 17.22° C | 42% | 1005 hPa | 0 mm | - | - | - |
| 1777993461 | 17.78° C | 42% | 1005 hPa | 0 mm | - | - | - |
| 1777993458 | 17.78° C | 42% | 1005 hPa | 0 mm | - | - | - |
| 1777992558 | 18.33° C | 39% | 1004.8 hPa | 0 mm | - | - | - |
| 1777992557 | 18.33° C | 39% | 1004.8 hPa | 0 mm | - | - | - |
| 1777991717 | 18.33° C | 39% | 1005.1 hPa | 0 mm | - | - | - |
| 1777991660 | 18.33° C | 39% | 1005 hPa | 0 mm | - | - | - |
| 1777991658 | 18.33° C | 39% | 1005 hPa | 0 mm | - | - | - |
| 1777990758 | 18.33° C | 39% | 1005 hPa | 0 mm | - | - | - |
| 1777990757 | 18.33° C | 39% | 1005 hPa | 0 mm | - | - | - |
| 1777989917 | 17.78° C | 40% | 1005 hPa | 0 mm | - | - | - |
| 1777989860 | 17.78° C | 41% | 1005.1 hPa | 0 mm | - | - | - |
| 1777989858 | 17.78° C | 41% | 1005.1 hPa | 0 mm | - | - | - |
| 1777988958 | 17.22° C | 46% | 1005.2 hPa | 0 mm | - | - | - |
* Rain latest hour (hover to see other rain measurements)
** Current wind speed in m/s (hover to see current wind gust speed)